Location: Hormuz
(27.0871°N, 56.4580°E)
Time: 12:07:57
(UTC+04:30)

ISS - Pass Details

Date: 25 June 2021
Orbit: 419 x 421 km, 51.6° (Epoch: 04 August)

Event Time Altitude Azimuth Distance (km) Brightness Sun altitude
Exits shadow 03:35:38 18° 101° (E) 1,117 -1.3 -25.1°
Drops below altitude 10° 03:37:07 10° 77° (ENE) 1,493 -0.2 -24.9°
Sets 03:39:34 0° 60° (ENE) 2,359 1.3 -24.5°
